Orange, MA

3:46 PM EDT on May 26, 2018 (GMT -0400)
Orange Municipal

Weather History for KORE - December, 2013

Change the Weather History Date:

Monday, December 9, 2013

  Actual Average Record
Temperature  
Mean Temperature 28 °F -  
Max Temperature 33 °F 37 °F 52 °F (2008)
Min Temperature 23 °F 20 °F 1 °F (2002)
Degree Days  
Heating Degree Days 37    
Moisture  
Dew Point 28 °F    
Average Humidity 93    
Maximum Humidity 100    
Minimum Humidity 71    
Precipitation  
Precipitation 0.15 in - - ()
Sea Level Pressure  
Sea Level Pressure 30.11 in    
Wind  
Wind Speed 3 mph (NNW)    
Max Wind Speed 9 mph    
Max Gust Speed -    
Visibility 4 miles    
Events Rain , Snow    
Averages and records for this station are not official NWS values.
T = Trace of Precipitation, MM = Missing Value Source: NWS Daily Summary

Daily Weather History Graph

Daily Weather History Graph

Search for Another Location

Airport or City:

Astronomy

Dec. 09, 2013 Rise Set
Actual Time 7:07 AM EST 4:15 PM EST
Civil Twilight 6:35 AM EST 4:47 PM EST
Nautical Twilight 6:00 AM EST 5:23 PM EST
Astronomical Twilight 5:25 AM EST 5:57 PM EST
Moon 11:51 AM EST (12/9) No Moon Set
Length of Visible Light 10h 12m
Length of Day
9h 08m
Waxing Crescent, 51% of the Moon is Illuminated
Dec 9
Waxing Crescent
Dec 17
Full
Dec 25
Last Quarter
Jan 1
New
Jan 7
First Quarter

Hourly Weather History & Observations

Time (EST) Temp. Windchill Dew Point Humidity Pressure Visibility Wind Dir Wind Speed Gust Speed Precip Events Conditions
12:52 AM 26.1 °F 21.9 °F 18.0 °F 71% 30.46 in 10.0 mi East 3.5 mph - N/A   Overcast
1:52 AM 25.0 °F 16.3 °F 17.1 °F 72% 30.45 in 9.0 mi East 8.1 mph - N/A   Overcast
2:47 AM 24.8 °F 19.1 °F 19.4 °F 80% 30.40 in 2.5 mi ENE 4.6 mph - 0.00 in Snow Light Snow
2:52 AM 24.1 °F 17.0 °F 19.0 °F 81% 30.42 in 2.0 mi ENE 5.8 mph - 0.00 in Snow Light Snow
3:00 AM 24.1 °F 19.7 °F 19.9 °F 84% 30.40 in 1.5 mi East 3.5 mph - 0.01 in Snow Light Snow
3:30 AM 24.1 °F 19.7 °F 19.9 °F 84% 30.39 in 2.0 mi North 3.5 mph - 0.01 in Snow Light Snow
3:42 AM 23.0 °F - 19.9 °F 88% 30.38 in 1.8 mi Calm Calm - 0.01 in Snow Light Snow
3:52 AM 24.1 °F - 21.0 °F 88% 30.40 in 2.5 mi Calm Calm - 0.02 in Snow Light Snow
4:11 AM 23.0 °F - 21.0 °F 92% 30.36 in 1.5 mi Calm Calm - 0.00 in Snow Light Snow
4:20 AM 23.0 °F - 21.0 °F 92% 30.35 in 2.0 mi Calm Calm - 0.00 in Snow Light Snow
4:34 AM 23.0 °F - 19.9 °F 88% 30.34 in 5.0 mi Calm Calm - 0.00 in   Overcast
4:52 AM 23.0 °F - 21.0 °F 92% 30.36 in 10.0 mi Calm Calm - 0.00 in   Overcast
5:30 AM 24.1 °F 19.7 °F 21.0 °F 88% 30.31 in 9.0 mi North 3.5 mph - N/A   Overcast
5:52 AM 24.1 °F - 21.0 °F 88% 30.33 in 6.0 mi Calm Calm - 0.00 in   Overcast
6:52 AM 24.1 °F - 21.9 °F 91% 30.29 in 4.0 mi Calm Calm - 0.01 in   Overcast
7:38 AM 25.0 °F 20.7 °F 23.0 °F 92% 30.23 in 3.0 mi NNW 3.5 mph - 0.00 in Rain Light Freezing Rain
7:49 AM 26.6 °F 20.0 °F 24.8 °F 93% 30.23 in 1.8 mi NNW 5.8 mph - 0.01 in Rain Light Freezing Rain
7:50 AM 26.1 °F 19.4 °F 24.1 °F 92% 30.26 in 1.8 mi North 5.8 mph - 0.01 in Rain Light Freezing Rain
7:57 AM 27.0 °F 21.6 °F 25.0 °F 92% 30.22 in 1.8 mi NE 4.6 mph - 0.01 in Rain Light Freezing Rain
8:07 AM 27.0 °F 23.0 °F 25.0 °F 92% 30.23 in 2.5 mi North 3.5 mph - 0.01 in Rain Light Freezing Rain
8:17 AM 27.0 °F 21.6 °F 25.0 °F 92% 30.22 in 3.0 mi NNE 4.6 mph - 0.01 in Rain Light Freezing Rain
8:24 AM 27.0 °F 23.0 °F 25.0 °F 92% 30.21 in 2.0 mi NE 3.5 mph - 0.02 in Rain Light Freezing Rain
8:31 AM 27.0 °F - 26.1 °F 96% 30.21 in 1.8 mi Calm Calm - 0.03 in Rain Light Freezing Rain
8:44 AM 28.0 °F - 25.0 °F 88% 30.21 in 2.5 mi Calm Calm - 0.03 in Rain Light Freezing Rain
8:52 AM 28.0 °F 22.8 °F 25.0 °F 88% 30.23 in 3.0 mi NNE 4.6 mph - 0.04 in   Overcast
9:01 AM 28.0 °F 21.7 °F 25.0 °F 88% 30.20 in 2.0 mi NNW 5.8 mph - 0.00 in   Overcast
9:14 AM 28.0 °F 24.2 °F 26.1 °F 92% 30.19 in 4.0 mi North 3.5 mph - 0.00 in   Overcast
9:34 AM 28.0 °F 24.2 °F 26.1 °F 92% 30.20 in 1.8 mi NNW 3.5 mph - 0.01 in   Overcast
9:39 AM 28.0 °F 24.2 °F 26.1 °F 92% 30.20 in 2.0 mi NNW 3.5 mph - 0.01 in Rain Light Freezing Rain
9:50 AM 28.4 °F - 26.6 °F 93% 30.19 in 3.0 mi Calm Calm - 0.01 in Rain Light Freezing Rain
9:52 AM 28.9 °F - 27.0 °F 92% 30.22 in 3.0 mi Calm Calm - 0.01 in Rain Light Freezing Rain
10:02 AM 28.9 °F 25.2 °F 27.0 °F 92% 30.19 in 1.8 mi North 3.5 mph - 0.00 in Rain Light Freezing Rain
10:15 AM 28.9 °F 25.2 °F 27.0 °F 92% 30.17 in 1.2 mi ENE 3.5 mph - 0.01 in Rain Light Freezing Rain
10:29 AM 28.9 °F - 27.0 °F 92% 30.15 in 1.5 mi Calm Calm - 0.02 in Rain Light Freezing Rain
10:33 AM 28.9 °F 25.2 °F 27.0 °F 92% 30.16 in 2.0 mi North 3.5 mph - 0.02 in Rain Light Freezing Rain
10:40 AM 30.0 °F - 28.0 °F 92% 30.15 in 2.5 mi Calm Calm - 0.02 in   Overcast
10:45 AM 30.0 °F - 28.0 °F 92% 30.14 in 2.5 mi Calm Calm - 0.02 in Rain Light Freezing Rain
10:52 AM 30.0 °F 25.2 °F 27.0 °F 88% 30.17 in 4.0 mi NW 4.6 mph - 0.02 in Rain Light Freezing Rain
11:02 AM 30.0 °F 25.2 °F 28.0 °F 92% 30.13 in 3.0 mi North 4.6 mph - 0.00 in   Overcast
11:05 AM 30.0 °F - 28.9 °F 96% 30.12 in 2.5 mi Calm Calm - 0.01 in Rain Light Freezing Rain
11:25 AM 30.9 °F - 28.9 °F 92% 30.11 in 2.5 mi Calm Calm - 0.02 in Rain Light Freezing Rain
11:36 AM 30.9 °F - 28.9 °F 92% 30.09 in 2.5 mi Calm Calm - 0.02 in   Overcast
11:45 AM 30.9 °F 26.2 °F 28.9 °F 92% 30.08 in 2.5 mi NNW 4.6 mph - 0.02 in   Overcast
11:52 AM 30.9 °F - 28.9 °F 92% 30.09 in 2.0 mi Calm Calm - 0.02 in Rain Light Freezing Rain
12:00 PM 30.9 °F 27.5 °F 30.0 °F 96% 30.06 in 1.8 mi North 3.5 mph - 0.00 in Rain Light Freezing Rain
12:05 PM 30.9 °F 26.2 °F 30.0 °F 96% 30.05 in 2.0 mi NNW 4.6 mph - 0.00 in   Overcast
12:13 PM 30.9 °F 27.5 °F 30.0 °F 96% 30.05 in 1.8 mi NW 3.5 mph - 0.00 in   Overcast
12:26 PM 30.9 °F 27.5 °F 30.0 °F 96% 30.04 in 1.8 mi NNW 3.5 mph - 0.01 in   Overcast
12:35 PM 32.0 °F 28.7 °F 30.9 °F 96% 30.03 in 2.0 mi NW 3.5 mph - 0.01 in   Overcast
12:52 PM 32.0 °F 28.7 °F 30.9 °F 96% 30.04 in 1.8 mi WNW 3.5 mph - 0.01 in   Overcast
1:07 PM 32.0 °F 26.4 °F 30.9 °F 96% 30.02 in 1.8 mi WNW 5.8 mph - N/A   Overcast
1:52 PM 32.0 °F - 32.0 °F 100% 30.01 in 1.2 mi Calm Calm - 0.01 in   Overcast
1:56 PM 32.0 °F 28.7 °F 32.0 °F 100% 29.98 in 1.5 mi NW 3.5 mph - 0.00 in   Overcast
2:09 PM 32.0 °F - 30.9 °F 96% 29.97 in 2.0 mi Calm Calm - 0.00 in   Overcast
2:22 PM 32.0 °F 28.7 °F 32.0 °F 100% 29.96 in 1.8 mi NW 3.5 mph - 0.00 in   Overcast
2:31 PM 32.0 °F 26.4 °F 32.0 °F 100% 29.97 in 2.5 mi NW 5.8 mph - 0.00 in   Overcast
2:37 PM 32.0 °F 28.7 °F 32.0 °F 100% 29.96 in 3.0 mi NNW 3.5 mph - 0.00 in   Overcast
2:52 PM 33.1 °F - 32.0 °F 96% 29.97 in 3.0 mi Calm Calm - 0.00 in   Overcast
3:52 PM 33.1 °F 28.7 °F 32.0 °F 96% 29.96 in 4.0 mi NW 4.6 mph - 0.00 in   Overcast
4:08 PM 33.1 °F - 32.0 °F 96% 29.93 in 2.5 mi Calm Calm - N/A   Overcast
4:44 PM 32.0 °F - 32.0 °F 100% 29.92 in 1.8 mi Calm Calm - N/A   Overcast
4:52 PM 32.0 °F - 32.0 °F 100% 29.94 in 1.5 mi Calm Calm - N/A   Overcast
4:59 PM 32.0 °F - 32.0 °F 100% 29.91 in 1.0 mi Calm Calm - N/A   Overcast
5:07 PM 32.0 °F 28.7 °F 32.0 °F 100% 29.91 in 1.2 mi WNW 3.5 mph - N/A   Overcast
5:18 PM 32.0 °F 27.5 °F 30.9 °F 96% 29.91 in 2.0 mi WNW 4.6 mph - N/A   Overcast
5:25 PM 32.0 °F - 32.0 °F 100% 29.90 in 3.0 mi Calm Calm - N/A   Overcast
5:52 PM 32.0 °F 28.7 °F 30.9 °F 96% 29.93 in 2.0 mi NNW 3.5 mph - N/A   Overcast
6:05 PM 32.0 °F - 32.0 °F 100% 29.90 in 2.5 mi Calm Calm - N/A   Overcast
6:16 PM 32.0 °F - 32.0 °F 100% 29.91 in 3.0 mi Calm Calm - N/A   Overcast
6:52 PM 32.0 °F 28.7 °F 30.9 °F 96% 29.93 in 10.0 mi West 3.5 mph - N/A   Overcast
7:33 PM 32.0 °F 27.5 °F 30.9 °F 96% 29.90 in 10.0 mi WSW 4.6 mph - N/A   Overcast
7:52 PM 32.0 °F 28.7 °F 30.9 °F 96% 29.92 in 10.0 mi SW 3.5 mph - N/A   Overcast
8:11 PM 32.0 °F - 32.0 °F 100% 29.90 in 10.0 mi Calm Calm - N/A   Overcast
8:52 PM 32.0 °F - 30.9 °F 96% 29.92 in 7.0 mi Calm Calm - N/A   Overcast
9:52 PM 33.1 °F 30.0 °F 32.0 °F 96% 29.93 in 10.0 mi SE 3.5 mph - N/A   Overcast
10:02 PM 33.1 °F 27.7 °F 32.0 °F 96% 29.91 in 10.0 mi SSE 5.8 mph - N/A   Overcast
10:18 PM 33.1 °F 26.1 °F 30.9 °F 92% 29.91 in 10.0 mi South 8.1 mph - N/A   Overcast
10:38 PM 33.1 °F 25.5 °F 32.0 °F 96% 29.90 in 10.0 mi South 9.2 mph - N/A   Overcast
10:48 PM 33.8 °F 26.4 °F 32.0 °F 93% 29.89 in 10.0 mi South 9.2 mph - N/A   Overcast
10:52 PM 33.1 °F 26.1 °F 32.0 °F 96% 29.91 in 10.0 mi South 8.1 mph - N/A   Overcast
11:52 PM 33.1 °F 27.7 °F 32.0 °F 96% 29.91 in 10.0 mi South 5.8 mph - N/A   Overcast